Location: Unspecified
(17.6330°N, 0.0000°E)
Time: 21:03:59
(UTC+00:00)

Courier 1B Rocket - Pass Details

Date: 03 July 2019
Orbit: 920 x 1202 km, 28.2° (Epoch: 21 October)

Event Time Altitude Azimuth Distance (km) Brightness Sun altitude
Rises 21:06:52 0° 237° (WSW) 3,978 8.4 -30.6°
Reaches altitude 10° 21:09:37 10° 235° (SW) 3,050 7.7 -31.1°
Enters shadow 21:14:53 47° 218° (SW) 1,520 5.8 -32.0°
